Year,Month,Day,Hour,Minute,Value (Times are PST for windspeed in km/hr)
2015,11,17,00,00,0.00
2015,11,17,00,01,0.00
2015,11,17,00,02,0.00
2015,11,17,00,03,0.00
2015,11,17,00,04,1.40
2015,11,17,00,05,2.80
2015,11,17,00,06,2.40
2015,11,17,00,07,1.00
2015,11,17,00,08,2.00
2015,11,17,00,09,8.10
2015,11,17,00,10,5.10
2015,11,17,00,11,0.10
2015,11,17,00,12,1.00
2015,11,17,00,13,3.10
2015,11,17,00,14,6.30
2015,11,17,00,15,12.60
2015,11,17,00,16,12.20
2015,11,17,00,17,12.70
2015,11,17,00,18,2.10
2015,11,17,00,19,6.30
2015,11,17,00,20,8.00
2015,11,17,00,21,1.30
2015,11,17,00,22,3.20
2015,11,17,00,23,5.50
2015,11,17,00,24,1.60
2015,11,17,00,25,1.30
2015,11,17,00,26,3.50
2015,11,17,00,27,7.30
2015,11,17,00,28,2.80
2015,11,17,00,29,1.40
2015,11,17,00,30,10.30
2015,11,17,00,31,9.50
2015,11,17,00,32,8.00
2015,11,17,00,33,10.80
2015,11,17,00,34,13.10
2015,11,17,00,35,8.60
2015,11,17,00,36,3.10
2015,11,17,00,37,4.50
2015,11,17,00,38,2.30
2015,11,17,00,39,5.20
2015,11,17,00,40,5.70
2015,11,17,00,41,1.10
2015,11,17,00,42,11.10
2015,11,17,00,43,10.90
2015,11,17,00,44,4.50
2015,11,17,00,45,1.30
2015,11,17,00,46,5.70
2015,11,17,00,47,6.40
2015,11,17,00,48,6.80
2015,11,17,00,49,8.10
2015,11,17,00,50,4.10
2015,11,17,00,51,10.10
2015,11,17,00,52,4.30
2015,11,17,00,53,5.80
2015,11,17,00,54,0.20
2015,11,17,00,55,4.70
2015,11,17,00,56,8.00
2015,11,17,00,57,7.50
2015,11,17,00,58,5.70
2015,11,17,00,59,8.40
2015,11,17,01,00,4.40
2015,11,17,01,01,0.10
2015,11,17,01,02,0.00
2015,11,17,01,03,0.00
2015,11,17,01,04,0.00
2015,11,17,01,05,0.10
2015,11,17,01,06,0.00
2015,11,17,01,07,0.80
2015,11,17,01,08,0.20
2015,11,17,01,09,3.00
2015,11,17,01,10,5.00
2015,11,17,01,11,6.30
2015,11,17,01,12,3.10
2015,11,17,01,13,0.40
2015,11,17,01,14,1.60
2015,11,17,01,15,5.70
2015,11,17,01,16,2.50
2015,11,17,01,17,0.00
2015,11,17,01,18,1.20
2015,11,17,01,19,0.00
2015,11,17,01,20,0.00
2015,11,17,01,21,0.00
2015,11,17,01,22,0.00
2015,11,17,01,23,0.00
2015,11,17,01,24,0.00
2015,11,17,01,25,0.00
2015,11,17,01,26,0.00
2015,11,17,01,27,0.00
2015,11,17,01,28,2.00
2015,11,17,01,29,0.40
2015,11,17,01,30,0.10
2015,11,17,01,31,1.80
2015,11,17,01,32,5.10
2015,11,17,01,33,3.80
2015,11,17,01,34,0.00
2015,11,17,01,35,0.00
2015,11,17,01,36,0.00
2015,11,17,01,37,0.00
2015,11,17,01,38,0.00
2015,11,17,01,39,0.00
2015,11,17,01,40,0.00
2015,11,17,01,41,0.00
2015,11,17,01,42,0.00
2015,11,17,01,43,0.70
2015,11,17,01,44,1.80
2015,11,17,01,45,3.30
2015,11,17,01,46,0.00
2015,11,17,01,47,0.00
2015,11,17,01,48,0.00
2015,11,17,01,49,0.00
2015,11,17,01,50,0.00
2015,11,17,01,51,0.00
2015,11,17,01,52,0.00
2015,11,17,01,53,0.00
2015,11,17,01,54,0.00
2015,11,17,01,55,0.00
2015,11,17,01,56,0.00
2015,11,17,01,57,0.00
2015,11,17,01,58,0.10
2015,11,17,01,59,0.00
2015,11,17,02,00,0.00
2015,11,17,02,01,0.00
2015,11,17,02,02,0.00
2015,11,17,02,03,0.00
2015,11,17,02,04,0.00
2015,11,17,02,05,0.00
2015,11,17,02,06,0.00
2015,11,17,02,07,0.00
2015,11,17,02,08,0.00
2015,11,17,02,09,0.00
2015,11,17,02,10,0.00
2015,11,17,02,11,0.00
2015,11,17,02,12,0.00
2015,11,17,02,13,0.00
2015,11,17,02,14,0.00
2015,11,17,02,15,0.00
2015,11,17,02,16,1.40
2015,11,17,02,17,5.10
2015,11,17,02,18,5.80
2015,11,17,02,19,1.40
2015,11,17,02,20,1.80
2015,11,17,02,21,0.40
2015,11,17,02,22,0.90
2015,11,17,02,23,0.60
2015,11,17,02,24,0.10
2015,11,17,02,25,0.60
2015,11,17,02,26,5.70
2015,11,17,02,27,1.40
2015,11,17,02,28,0.30
2015,11,17,02,29,1.90
2015,11,17,02,30,3.00
2015,11,17,02,31,0.60
2015,11,17,02,32,1.50
2015,11,17,02,33,5.20
2015,11,17,02,34,1.50
2015,11,17,02,35,0.10
2015,11,17,02,36,0.00
2015,11,17,02,37,0.00
2015,11,17,02,38,0.00
2015,11,17,02,39,0.00
2015,11,17,02,40,0.00
2015,11,17,02,41,0.00
2015,11,17,02,42,0.00
2015,11,17,02,43,0.00
2015,11,17,02,44,0.00
2015,11,17,02,45,0.00
2015,11,17,02,46,0.10
2015,11,17,02,47,0.00
2015,11,17,02,48,0.10
2015,11,17,02,49,0.00
2015,11,17,02,50,1.60
2015,11,17,02,51,5.30
2015,11,17,02,52,3.80
2015,11,17,02,53,5.50
2015,11,17,02,54,6.80
2015,11,17,02,55,4.90
2015,11,17,02,56,2.80
2015,11,17,02,57,6.40
2015,11,17,02,58,6.60
2015,11,17,02,59,2.80
2015,11,17,03,00,5.70
2015,11,17,03,01,8.10
2015,11,17,03,02,7.40
2015,11,17,03,03,7.40
2015,11,17,03,04,8.30
2015,11,17,03,05,10.80
2015,11,17,03,06,9.10
2015,11,17,03,07,6.20
2015,11,17,03,08,6.80
2015,11,17,03,09,6.70
2015,11,17,03,10,6.80
2015,11,17,03,11,7.20
2015,11,17,03,12,6.80
2015,11,17,03,13,8.50
2015,11,17,03,14,5.50
2015,11,17,03,15,4.90
2015,11,17,03,16,3.70
2015,11,17,03,17,2.50
2015,11,17,03,18,3.10
2015,11,17,03,19,4.40
2015,11,17,03,20,5.30
2015,11,17,03,21,4.20
2015,11,17,03,22,4.10
2015,11,17,03,23,6.40
2015,11,17,03,24,2.40
2015,11,17,03,25,6.10
2015,11,17,03,26,6.30
2015,11,17,03,27,4.30
2015,11,17,03,28,3.10
2015,11,17,03,29,4.10
2015,11,17,03,30,0.00
2015,11,17,03,31,0.00
2015,11,17,03,32,0.00
2015,11,17,03,33,0.00
2015,11,17,03,34,0.10
2015,11,17,03,35,0.00
2015,11,17,03,36,0.00
2015,11,17,03,37,0.00
2015,11,17,03,38,0.00
2015,11,17,03,39,0.00
2015,11,17,03,40,0.00
2015,11,17,03,41,0.00
2015,11,17,03,42,0.00
2015,11,17,03,43,0.10
2015,11,17,03,44,0.00
2015,11,17,03,45,0.00
2015,11,17,03,46,0.00
2015,11,17,03,47,1.40
2015,11,17,03,48,5.00
2015,11,17,03,49,0.90
2015,11,17,03,50,0.10
2015,11,17,03,51,2.70
2015,11,17,03,52,5.20
2015,11,17,03,53,2.70
2015,11,17,03,54,3.90
2015,11,17,03,55,4.40
2015,11,17,03,56,5.90
2015,11,17,03,57,6.60
2015,11,17,03,58,6.90
2015,11,17,03,59,5.10
2015,11,17,04,00,4.40
2015,11,17,04,01,5.60
2015,11,17,04,02,2.60
2015,11,17,04,03,5.40
2015,11,17,04,04,4.90
2015,11,17,04,05,4.30
2015,11,17,04,06,5.20
2015,11,17,04,07,6.60
2015,11,17,04,08,4.70
2015,11,17,04,09,5.20
2015,11,17,04,10,6.10
2015,11,17,04,11,5.50
2015,11,17,04,12,5.20
2015,11,17,04,13,5.90
2015,11,17,04,14,6.60
2015,11,17,04,15,7.40
2015,11,17,04,16,3.80
2015,11,17,04,17,2.10
2015,11,17,04,18,3.00
2015,11,17,04,19,7.30
2015,11,17,04,20,3.00
2015,11,17,04,21,5.30
2015,11,17,04,22,5.80
2015,11,17,04,23,7.20
2015,11,17,04,24,4.90
2015,11,17,04,25,4.10
2015,11,17,04,26,4.40
2015,11,17,04,27,3.00
2015,11,17,04,28,6.00
2015,11,17,04,29,5.00
2015,11,17,04,30,5.40
2015,11,17,04,31,5.40
2015,11,17,04,32,5.50
2015,11,17,04,33,5.70
2015,11,17,04,34,6.00
2015,11,17,04,35,6.30
2015,11,17,04,36,3.60
2015,11,17,04,37,8.50
2015,11,17,04,38,8.10
2015,11,17,04,39,8.40
2015,11,17,04,40,6.60
2015,11,17,04,41,5.50
2015,11,17,04,42,6.00
2015,11,17,04,43,8.30
2015,11,17,04,44,4.20
2015,11,17,04,45,7.40
2015,11,17,04,46,8.60
2015,11,17,04,47,6.10
2015,11,17,04,48,6.70
2015,11,17,04,49,9.80
2015,11,17,04,50,7.30
2015,11,17,04,51,7.90
2015,11,17,04,52,9.40
2015,11,17,04,53,9.10
2015,11,17,04,54,7.80
2015,11,17,04,55,9.70
2015,11,17,04,56,12.70
2015,11,17,04,57,10.70
2015,11,17,04,58,14.00
2015,11,17,04,59,9.00
2015,11,17,05,00,12.40
2015,11,17,05,01,13.30
2015,11,17,05,02,13.20
2015,11,17,05,03,15.00
2015,11,17,05,04,11.50
2015,11,17,05,05,13.90
2015,11,17,05,06,11.00
2015,11,17,05,07,12.50
2015,11,17,05,08,13.90
2015,11,17,05,09,10.50
2015,11,17,05,10,11.30
2015,11,17,05,11,8.50
2015,11,17,05,12,15.70
2015,11,17,05,13,9.10
2015,11,17,05,14,12.30
2015,11,17,05,15,9.40
2015,11,17,05,16,12.30
2015,11,17,05,17,6.70
2015,11,17,05,18,9.60
2015,11,17,05,19,6.90
2015,11,17,05,20,5.00
2015,11,17,05,21,7.60
2015,11,17,05,22,7.10
2015,11,17,05,23,7.10
2015,11,17,05,24,8.10
2015,11,17,05,25,4.70
2015,11,17,05,26,10.60
2015,11,17,05,27,12.20
2015,11,17,05,28,5.80
2015,11,17,05,29,7.50
2015,11,17,05,30,8.30
2015,11,17,05,31,3.90
2015,11,17,05,32,6.20
2015,11,17,05,33,5.70
2015,11,17,05,34,3.00
2015,11,17,05,35,3.50
2015,11,17,05,36,8.00
2015,11,17,05,37,9.10
2015,11,17,05,38,6.80
2015,11,17,05,39,6.80
2015,11,17,05,40,3.80
2015,11,17,05,41,9.10
2015,11,17,05,42,9.00
2015,11,17,05,43,11.00
2015,11,17,05,44,16.90
2015,11,17,05,45,15.00
2015,11,17,05,46,8.00
2015,11,17,05,47,7.30
2015,11,17,05,48,22.10
2015,11,17,05,49,23.70
2015,11,17,05,50,8.00
2015,11,17,05,51,5.00
2015,11,17,05,52,13.10
2015,11,17,05,53,19.10
2015,11,17,05,54,12.20
2015,11,17,05,55,9.20
2015,11,17,05,56,10.50
2015,11,17,05,57,17.90
2015,11,17,05,58,9.10
2015,11,17,05,59,13.40
2015,11,17,06,00,10.70
2015,11,17,06,01,9.70
2015,11,17,06,02,10.00
2015,11,17,06,03,8.60
2015,11,17,06,04,6.40
2015,11,17,06,05,15.00
2015,11,17,06,06,22.60
2015,11,17,06,07,21.10
2015,11,17,06,08,21.30
2015,11,17,06,09,16.10
2015,11,17,06,10,20.90
2015,11,17,06,11,20.80
2015,11,17,06,12,8.20
2015,11,17,06,13,7.90
2015,11,17,06,14,17.70
2015,11,17,06,15,25.40
2015,11,17,06,16,19.50
2015,11,17,06,17,18.30
2015,11,17,06,18,9.80
2015,11,17,06,19,12.70
2015,11,17,06,20,12.00
2015,11,17,06,21,22.30
2015,11,17,06,22,9.10
2015,11,17,06,23,21.00
2015,11,17,06,24,11.40
2015,11,17,06,25,1.90
2015,11,17,06,26,3.90
2015,11,17,06,27,4.60
2015,11,17,06,28,3.80
2015,11,17,06,29,20.30
2015,11,17,06,30,8.20
2015,11,17,06,31,6.60
2015,11,17,06,32,10.10
2015,11,17,06,33,13.30
2015,11,17,06,34,6.40
2015,11,17,06,35,20.40
2015,11,17,06,36,5.50
2015,11,17,06,37,8.50
2015,11,17,06,38,2.50
2015,11,17,06,39,12.10
2015,11,17,06,40,18.90
2015,11,17,06,41,17.50
2015,11,17,06,42,22.40
2015,11,17,06,43,16.20
2015,11,17,06,44,19.10
2015,11,17,06,45,7.30
2015,11,17,06,46,9.50
2015,11,17,06,47,8.10
2015,11,17,06,48,7.20
2015,11,17,06,49,7.70
2015,11,17,06,50,12.80
2015,11,17,06,51,5.90
2015,11,17,06,52,9.20
2015,11,17,06,53,10.80
2015,11,17,06,54,10.00
2015,11,17,06,55,3.00
2015,11,17,06,56,7.60
2015,11,17,06,57,9.50
2015,11,17,06,58,8.30
2015,11,17,06,59,6.80
2015,11,17,07,00,9.80
2015,11,17,07,01,8.00
2015,11,17,07,02,15.40
2015,11,17,07,03,9.30
2015,11,17,07,04,9.50
2015,11,17,07,05,14.70
2015,11,17,07,06,15.10
2015,11,17,07,07,5.20
2015,11,17,07,08,7.10
2015,11,17,07,09,10.60
2015,11,17,07,10,13.70
2015,11,17,07,11,11.80
2015,11,17,07,12,10.10
2015,11,17,07,13,6.40
2015,11,17,07,14,9.70
2015,11,17,07,15,9.50
2015,11,17,07,16,7.00
2015,11,17,07,17,2.80
2015,11,17,07,18,2.00
2015,11,17,07,19,7.20
2015,11,17,07,20,13.50
2015,11,17,07,21,17.10
2015,11,17,07,22,20.10
2015,11,17,07,23,14.80
2015,11,17,07,24,11.70
2015,11,17,07,25,9.70
2015,11,17,07,26,21.70
2015,11,17,07,27,20.70
2015,11,17,07,28,7.20
2015,11,17,07,29,21.60
2015,11,17,07,30,12.10
2015,11,17,07,31,14.70
2015,11,17,07,32,11.30
2015,11,17,07,33,16.20
2015,11,17,07,34,12.20
2015,11,17,07,35,4.80
2015,11,17,07,36,24.90
2015,11,17,07,37,19.10
2015,11,17,07,38,11.80
2015,11,17,07,39,7.50
2015,11,17,07,40,4.00
2015,11,17,07,41,10.50
2015,11,17,07,42,6.70
2015,11,17,07,43,15.40
2015,11,17,07,44,8.90
2015,11,17,07,45,1.30
2015,11,17,07,46,4.90
2015,11,17,07,47,13.50
2015,11,17,07,48,9.70
2015,11,17,07,49,15.50
2015,11,17,07,50,9.60
2015,11,17,07,51,6.00
2015,11,17,07,52,6.30
2015,11,17,07,53,9.30
2015,11,17,07,54,11.50
2015,11,17,07,55,6.80
2015,11,17,07,56,4.10
2015,11,17,07,57,12.00
2015,11,17,07,58,11.20
2015,11,17,07,59,15.20
2015,11,17,08,00,3.10
2015,11,17,08,01,6.40
2015,11,17,08,02,21.20
2015,11,17,08,03,12.20
2015,11,17,08,04,14.20
2015,11,17,08,05,14.20
2015,11,17,08,06,12.70
2015,11,17,08,07,29.80
2015,11,17,08,08,22.80
2015,11,17,08,09,17.00
2015,11,17,08,10,18.80
2015,11,17,08,11,18.70
2015,11,17,08,12,27.90
2015,11,17,08,13,25.40
2015,11,17,08,14,18.00
2015,11,17,08,15,16.70
2015,11,17,08,16,17.30
2015,11,17,08,17,16.50
2015,11,17,08,18,24.70
2015,11,17,08,19,12.10
2015,11,17,08,20,9.20
2015,11,17,08,21,13.60
2015,11,17,08,22,12.70
2015,11,17,08,23,16.50
2015,11,17,08,24,12.20
2015,11,17,08,25,20.90
2015,11,17,08,26,21.50
2015,11,17,08,27,9.50
2015,11,17,08,28,7.60
2015,11,17,08,29,14.20
2015,11,17,08,30,16.70
2015,11,17,08,31,12.70
2015,11,17,08,32,14.20
2015,11,17,08,33,9.00
2015,11,17,08,34,10.70
2015,11,17,08,35,17.80
2015,11,17,08,36,12.00
2015,11,17,08,37,17.50
2015,11,17,08,38,17.90
2015,11,17,08,39,10.20
2015,11,17,08,40,15.90
2015,11,17,08,41,28.60
2015,11,17,08,42,19.90
2015,11,17,08,43,19.60
2015,11,17,08,44,18.20
2015,11,17,08,45,7.50
2015,11,17,08,46,8.40
2015,11,17,08,47,0.90
2015,11,17,08,48,12.80
2015,11,17,08,49,8.30
2015,11,17,08,50,1.20
2015,11,17,08,51,5.40
2015,11,17,08,52,4.30
2015,11,17,08,53,15.00
2015,11,17,08,54,18.20
2015,11,17,08,55,9.20
2015,11,17,08,56,7.60
2015,11,17,08,57,11.90
2015,11,17,08,58,9.40
2015,11,17,08,59,10.00
2015,11,17,09,00,12.90
2015,11,17,09,01,7.10
2015,11,17,09,02,5.80
2015,11,17,09,03,9.90
2015,11,17,09,04,9.30
2015,11,17,09,05,13.80
2015,11,17,09,06,19.00
2015,11,17,09,07,17.20
2015,11,17,09,08,18.60
2015,11,17,09,09,5.90
2015,11,17,09,10,16.40
2015,11,17,09,11,10.10
2015,11,17,09,12,4.80
2015,11,17,09,13,8.00
2015,11,17,09,14,10.00
2015,11,17,09,15,14.20
2015,11,17,09,16,24.90
2015,11,17,09,17,20.50
2015,11,17,09,18,14.10
2015,11,17,09,19,8.00
2015,11,17,09,20,17.10
2015,11,17,09,21,7.20
2015,11,17,09,22,10.80
2015,11,17,09,23,13.60
2015,11,17,09,24,8.50
2015,11,17,09,25,8.50
2015,11,17,09,26,6.80
2015,11,17,09,27,12.40
2015,11,17,09,28,14.70
2015,11,17,09,29,19.40
2015,11,17,09,30,16.70
2015,11,17,09,31,9.30
2015,11,17,09,32,12.10
2015,11,17,09,33,8.00
2015,11,17,09,34,11.70
2015,11,17,09,35,0.20
2015,11,17,09,36,10.10
2015,11,17,09,37,14.30
2015,11,17,09,38,12.40
2015,11,17,09,39,14.60
2015,11,17,09,40,12.10
2015,11,17,09,41,27.10
2015,11,17,09,42,17.90
2015,11,17,09,43,20.80
2015,11,17,09,44,10.20
2015,11,17,09,45,12.80
2015,11,17,09,46,16.90
2015,11,17,09,47,20.40
2015,11,17,09,48,11.70
2015,11,17,09,49,10.80
2015,11,17,09,50,13.70
2015,11,17,09,51,8.80
2015,11,17,09,52,6.40
2015,11,17,09,53,12.50
2015,11,17,09,54,16.70
2015,11,17,09,55,11.00
2015,11,17,09,56,8.70
2015,11,17,09,57,4.90
2015,11,17,09,58,9.30
2015,11,17,09,59,13.80
2015,11,17,10,00,12.70
2015,11,17,10,01,3.10
2015,11,17,10,02,10.50
2015,11,17,10,03,8.60
2015,11,17,10,04,10.40
2015,11,17,10,05,7.20
2015,11,17,10,06,5.10
2015,11,17,10,07,18.80
2015,11,17,10,08,4.60
2015,11,17,10,09,4.60
2015,11,17,10,10,14.10
2015,11,17,10,11,8.20
2015,11,17,10,12,9.50
2015,11,17,10,13,10.10
2015,11,17,10,14,15.80
2015,11,17,10,15,24.10
2015,11,17,10,16,8.80
2015,11,17,10,17,7.80
2015,11,17,10,18,11.80
2015,11,17,10,19,7.50
2015,11,17,10,20,13.40
2015,11,17,10,21,7.20
2015,11,17,10,22,12.10
2015,11,17,10,23,20.80
2015,11,17,10,24,11.90
2015,11,17,10,25,7.20
2015,11,17,10,26,12.40
2015,11,17,10,27,12.40
2015,11,17,10,28,13.60
2015,11,17,10,29,14.50
2015,11,17,10,30,12.40
2015,11,17,10,31,4.00
2015,11,17,10,32,10.20
2015,11,17,10,33,14.90
2015,11,17,10,34,18.30
2015,11,17,10,35,13.60
2015,11,17,10,36,9.00
2015,11,17,10,37,4.80
2015,11,17,10,38,7.70
2015,11,17,10,39,17.00
2015,11,17,10,40,12.00
2015,11,17,10,41,15.40
2015,11,17,10,42,20.80
2015,11,17,10,43,13.20
2015,11,17,10,44,9.90
2015,11,17,10,45,27.00
2015,11,17,10,46,9.50
2015,11,17,10,47,12.20
2015,11,17,10,48,14.40
2015,11,17,10,49,13.70
2015,11,17,10,50,9.20
2015,11,17,10,51,8.40
2015,11,17,10,52,15.80
2015,11,17,10,53,5.00
2015,11,17,10,54,6.50
2015,11,17,10,55,8.20
2015,11,17,10,56,14.20
2015,11,17,10,57,14.90
2015,11,17,10,58,12.10
2015,11,17,10,59,10.80
2015,11,17,11,00,19.20
2015,11,17,11,01,12.40
2015,11,17,11,02,14.90
2015,11,17,11,03,11.60
2015,11,17,11,04,12.30
2015,11,17,11,05,17.30
2015,11,17,11,06,18.80
2015,11,17,11,07,13.50
2015,11,17,11,08,9.40
2015,11,17,11,09,13.30
2015,11,17,11,10,11.20
2015,11,17,11,11,11.20
2015,11,17,11,12,12.60
2015,11,17,11,13,15.50
2015,11,17,11,14,5.00
2015,11,17,11,15,9.20
2015,11,17,11,16,5.90
2015,11,17,11,17,24.10
2015,11,17,11,18,11.30
2015,11,17,11,19,8.70
2015,11,17,11,20,4.70
2015,11,17,11,21,9.60
2015,11,17,11,22,10.30
2015,11,17,11,23,8.10
2015,11,17,11,24,25.80
2015,11,17,11,25,26.60
2015,11,17,11,26,15.00
2015,11,17,11,27,10.30
2015,11,17,11,28,20.80
2015,11,17,11,29,10.30
2015,11,17,11,30,7.00
2015,11,17,11,31,9.10
2015,11,17,11,32,9.70
2015,11,17,11,33,12.20
2015,11,17,11,34,2.90
2015,11,17,11,35,7.60
2015,11,17,11,36,17.30
2015,11,17,11,37,9.30
2015,11,17,11,38,9.20
2015,11,17,11,39,13.40
2015,11,17,11,40,18.00
2015,11,17,11,41,20.90
2015,11,17,11,42,14.30
2015,11,17,11,43,24.80
2015,11,17,11,44,8.90
2015,11,17,11,45,17.90
2015,11,17,11,46,20.80
2015,11,17,11,47,14.20
2015,11,17,11,48,17.90
2015,11,17,11,49,23.00
2015,11,17,11,50,16.00
2015,11,17,11,51,5.50
2015,11,17,11,52,5.20
2015,11,17,11,53,11.50
2015,11,17,11,54,24.50
2015,11,17,11,55,25.20
2015,11,17,11,56,10.60
2015,11,17,11,57,18.40
2015,11,17,11,58,15.00
2015,11,17,11,59,19.70
2015,11,17,12,00,25.70
2015,11,17,12,01,23.00
2015,11,17,12,02,24.10
2015,11,17,12,03,13.10
2015,11,17,12,04,15.40
2015,11,17,12,05,18.40
2015,11,17,12,06,15.50
2015,11,17,12,07,6.20
2015,11,17,12,08,7.60
2015,11,17,12,09,14.20
2015,11,17,12,10,21.70
2015,11,17,12,11,20.60
2015,11,17,12,12,14.80
2015,11,17,12,13,23.10
2015,11,17,12,14,13.40
2015,11,17,12,15,11.30
2015,11,17,12,16,21.50
2015,11,17,12,17,15.70
2015,11,17,12,18,19.30
2015,11,17,12,19,6.10
2015,11,17,12,20,11.10
2015,11,17,12,21,10.10
2015,11,17,12,22,17.60
2015,11,17,12,23,11.50
2015,11,17,12,24,18.60
2015,11,17,12,25,29.70
2015,11,17,12,26,17.90
2015,11,17,12,27,13.60
2015,11,17,12,28,19.50
2015,11,17,12,29,24.40
2015,11,17,12,30,19.10
2015,11,17,12,31,10.60
2015,11,17,12,32,14.00
2015,11,17,12,33,12.40
2015,11,17,12,34,6.40
2015,11,17,12,35,12.20
2015,11,17,12,36,4.90
2015,11,17,12,37,23.60
2015,11,17,12,38,17.80
2015,11,17,12,39,8.10
2015,11,17,12,40,9.10
2015,11,17,12,41,10.20
2015,11,17,12,42,13.70
2015,11,17,12,43,12.40
2015,11,17,12,44,17.30
2015,11,17,12,45,13.90
2015,11,17,12,46,8.40
2015,11,17,12,47,9.90
2015,11,17,12,48,28.10
2015,11,17,12,49,16.10
2015,11,17,12,50,15.00
2015,11,17,12,51,9.20
2015,11,17,12,52,13.80
2015,11,17,12,53,13.00
2015,11,17,12,54,14.10
2015,11,17,12,55,12.60
2015,11,17,12,56,14.50
2015,11,17,12,57,11.70
2015,11,17,12,58,6.40
2015,11,17,12,59,16.30
2015,11,17,13,00,9.20
2015,11,17,13,01,2.00
2015,11,17,13,02,6.00
2015,11,17,13,03,4.90
2015,11,17,13,04,8.40
2015,11,17,13,05,14.60
2015,11,17,13,06,20.70
2015,11,17,13,07,23.20
2015,11,17,13,08,8.60
2015,11,17,13,09,8.60
2015,11,17,13,10,11.20
2015,11,17,13,11,21.20
2015,11,17,13,12,14.60
2015,11,17,13,13,16.20
2015,11,17,13,14,12.60
2015,11,17,13,15,24.20
2015,11,17,13,16,16.00
2015,11,17,13,17,23.70
2015,11,17,13,18,22.80
2015,11,17,13,19,15.30
2015,11,17,13,20,24.90
2015,11,17,13,21,19.00
2015,11,17,13,22,18.40
2015,11,17,13,23,13.10
2015,11,17,13,24,23.70
2015,11,17,13,25,19.20
2015,11,17,13,26,28.70
2015,11,17,13,27,12.60
2015,11,17,13,28,4.40
2015,11,17,13,29,23.80
2015,11,17,13,30,11.40
2015,11,17,13,31,13.00
2015,11,17,13,32,11.70
2015,11,17,13,33,23.10
2015,11,17,13,34,9.10
2015,11,17,13,35,12.80
2015,11,17,13,36,17.90
2015,11,17,13,37,9.90
2015,11,17,13,38,15.10
2015,11,17,13,39,22.40
2015,11,17,13,40,28.80
2015,11,17,13,41,16.70
2015,11,17,13,42,25.80
2015,11,17,13,43,23.40
2015,11,17,13,44,24.60
2015,11,17,13,45,19.90
2015,11,17,13,46,14.60
2015,11,17,13,47,6.70
2015,11,17,13,48,19.70
2015,11,17,13,49,29.30
2015,11,17,13,50,25.60
2015,11,17,13,51,19.10
2015,11,17,13,52,22.00
2015,11,17,13,53,25.10
2015,11,17,13,54,29.30
2015,11,17,13,55,25.40
2015,11,17,13,56,17.60
2015,11,17,13,57,7.40
2015,11,17,13,58,24.10
2015,11,17,13,59,19.40
2015,11,17,14,00,30.30
2015,11,17,14,01,20.20
2015,11,17,14,02,35.60
2015,11,17,14,03,23.30
2015,11,17,14,04,21.80
2015,11,17,14,05,14.20
2015,11,17,14,06,23.70
2015,11,17,14,07,12.60
2015,11,17,14,08,20.40
2015,11,17,14,09,20.00
2015,11,17,14,10,14.80
2015,11,17,14,11,28.40
2015,11,17,14,12,15.00
2015,11,17,14,13,30.30
2015,11,17,14,14,20.30
2015,11,17,14,15,13.20
2015,11,17,14,16,19.10
2015,11,17,14,17,25.80
2015,11,17,14,18,20.90
2015,11,17,14,19,20.30
2015,11,17,14,20,9.80
2015,11,17,14,21,3.60
2015,11,17,14,22,8.60
2015,11,17,14,23,14.50
2015,11,17,14,24,17.00
2015,11,17,14,25,2.40
2015,11,17,14,26,11.80
2015,11,17,14,27,17.20
2015,11,17,14,28,17.90
2015,11,17,14,29,19.10
2015,11,17,14,30,24.50
2015,11,17,14,31,12.30
2015,11,17,14,32,3.60
2015,11,17,14,33,19.90
2015,11,17,14,34,8.20
2015,11,17,14,35,15.50
2015,11,17,14,36,11.50
2015,11,17,14,37,16.20
2015,11,17,14,38,7.10
2015,11,17,14,39,12.10
2015,11,17,14,40,18.10
2015,11,17,14,41,17.90
2015,11,17,14,42,12.80
2015,11,17,14,43,16.50
2015,11,17,14,44,21.20
2015,11,17,14,45,17.50
2015,11,17,14,46,8.90
2015,11,17,14,47,7.10
2015,11,17,14,48,22.10
2015,11,17,14,49,19.80
2015,11,17,14,50,24.30
2015,11,17,14,51,15.20
2015,11,17,14,52,9.70
2015,11,17,14,53,7.80
2015,11,17,14,54,4.50
2015,11,17,14,55,9.30
2015,11,17,14,56,6.80
2015,11,17,14,57,7.20
2015,11,17,14,58,7.00
2015,11,17,14,59,1.90
2015,11,17,15,00,6.70
2015,11,17,15,01,11.40
2015,11,17,15,02,4.10
2015,11,17,15,03,3.30
2015,11,17,15,04,10.30
2015,11,17,15,05,15.00
2015,11,17,15,06,22.40
2015,11,17,15,07,16.70
2015,11,17,15,08,15.90
2015,11,17,15,09,10.40
2015,11,17,15,10,11.70
2015,11,17,15,11,3.70
2015,11,17,15,12,14.60
2015,11,17,15,13,16.90
2015,11,17,15,14,4.70
2015,11,17,15,15,19.60
2015,11,17,15,16,5.70
2015,11,17,15,17,9.20
2015,11,17,15,18,18.80
2015,11,17,15,19,4.90
2015,11,17,15,20,13.00
2015,11,17,15,21,6.00
2015,11,17,15,22,14.80
2015,11,17,15,23,15.20
2015,11,17,15,24,12.10
2015,11,17,15,25,16.00
2015,11,17,15,26,12.30
2015,11,17,15,27,5.90
2015,11,17,15,28,11.50
2015,11,17,15,29,5.10
2015,11,17,15,30,10.80
2015,11,17,15,31,10.90
2015,11,17,15,32,9.30
2015,11,17,15,33,13.10
2015,11,17,15,34,6.30
2015,11,17,15,35,7.60
2015,11,17,15,36,1.80
2015,11,17,15,37,6.60
2015,11,17,15,38,8.70
2015,11,17,15,39,9.90
2015,11,17,15,40,6.90
2015,11,17,15,41,15.20
2015,11,17,15,42,12.40
2015,11,17,15,43,8.60
2015,11,17,15,44,8.50
2015,11,17,15,45,3.90
2015,11,17,15,46,2.40
2015,11,17,15,47,7.90
2015,11,17,15,48,6.00
2015,11,17,15,49,7.50
2015,11,17,15,50,6.20
2015,11,17,15,51,8.20
2015,11,17,15,52,14.20
2015,11,17,15,53,6.00
2015,11,17,15,54,4.50
2015,11,17,15,55,3.90
2015,11,17,15,56,7.90
2015,11,17,15,57,5.10
2015,11,17,15,58,1.10
2015,11,17,15,59,7.90
2015,11,17,16,00,8.80
2015,11,17,16,01,4.40
2015,11,17,16,02,10.30
2015,11,17,16,03,3.60
2015,11,17,16,04,4.10
2015,11,17,16,05,3.60
2015,11,17,16,06,13.80
2015,11,17,16,07,4.70
2015,11,17,16,08,6.60
2015,11,17,16,09,11.90
2015,11,17,16,10,1.40
2015,11,17,16,11,2.10
2015,11,17,16,12,4.60
2015,11,17,16,13,11.70
2015,11,17,16,14,9.70
2015,11,17,16,15,12.80
2015,11,17,16,16,10.20
2015,11,17,16,17,7.50
2015,11,17,16,18,2.20
2015,11,17,16,19,6.50
2015,11,17,16,20,5.10
2015,11,17,16,21,5.20
2015,11,17,16,22,2.70
2015,11,17,16,23,6.30
2015,11,17,16,24,4.10
2015,11,17,16,25,4.80
2015,11,17,16,26,8.50
2015,11,17,16,27,6.40
2015,11,17,16,28,8.60
2015,11,17,16,29,11.30
2015,11,17,16,30,12.20
2015,11,17,16,31,13.20
2015,11,17,16,32,16.30
2015,11,17,16,33,7.00
2015,11,17,16,34,18.80
2015,11,17,16,35,13.00
2015,11,17,16,36,6.30
2015,11,17,16,37,3.50
2015,11,17,16,38,12.40
2015,11,17,16,39,14.10
2015,11,17,16,40,2.60
2015,11,17,16,41,3.90
2015,11,17,16,42,15.90
2015,11,17,16,43,6.40
2015,11,17,16,44,9.10
2015,11,17,16,45,5.60
2015,11,17,16,46,11.30
2015,11,17,16,47,5.20
2015,11,17,16,48,3.60
2015,11,17,16,49,5.10
2015,11,17,16,50,9.50
2015,11,17,16,51,7.40
2015,11,17,16,52,4.40
2015,11,17,16,53,0.00
2015,11,17,16,54,0.50
2015,11,17,16,55,13.00
2015,11,17,16,56,19.20
2015,11,17,16,57,9.50
2015,11,17,16,58,10.50
2015,11,17,16,59,9.40
2015,11,17,17,00,7.10
2015,11,17,17,01,8.20
2015,11,17,17,02,2.30
2015,11,17,17,03,6.20
2015,11,17,17,04,4.00
2015,11,17,17,05,8.00
2015,11,17,17,06,10.10
2015,11,17,17,07,6.70
2015,11,17,17,08,1.00
2015,11,17,17,09,9.70
2015,11,17,17,10,17.30
2015,11,17,17,11,9.00
2015,11,17,17,12,5.60
2015,11,17,17,13,4.00
2015,11,17,17,14,8.80
2015,11,17,17,15,10.30
2015,11,17,17,16,9.30
2015,11,17,17,17,14.20
2015,11,17,17,18,13.80
2015,11,17,17,19,9.20
2015,11,17,17,20,1.30
2015,11,17,17,21,3.40
2015,11,17,17,22,6.20
2015,11,17,17,23,12.70
2015,11,17,17,24,9.60
2015,11,17,17,25,10.50
2015,11,17,17,26,6.80
2015,11,17,17,27,5.80
2015,11,17,17,28,6.00
2015,11,17,17,29,2.50
2015,11,17,17,30,3.80
2015,11,17,17,31,0.10
2015,11,17,17,32,2.60
2015,11,17,17,33,5.20
2015,11,17,17,34,2.70
2015,11,17,17,35,3.40
2015,11,17,17,36,0.90
2015,11,17,17,37,3.80
2015,11,17,17,38,2.00
2015,11,17,17,39,3.50
2015,11,17,17,40,3.90
2015,11,17,17,41,8.90
2015,11,17,17,42,8.80
2015,11,17,17,43,5.90
2015,11,17,17,44,8.20
2015,11,17,17,45,9.00